Temperature
1 2 2 2 2 3 3 3 3 3 3 3 3 3 3 3 3 3 3 3 4 4 4 5 5 5 5 6 6 6 7 7 7 7 7 7 6 6 6 6 6 6 6 6
1 2 2 2 2 2 2 2 2 2 2 2 2 2 2 2 2 2 2 2 3 3 4 4 4 4 5 5 5 5 6 6 6 6 6 6 6 6 6 6 6 6 6 6
0 1 2 1 1 1 2 2 2 2 2 2 2 1 1 2 2 2 2 2 2 3 3 3 4 4 4 4 4 4 4 5 5 5 5 5 5 5 5 5 5 5 5 5
-1 0 0 1 1 1 1 1 1 1 1 1 1 1 2 2 1 2 2 2 2 2 2 3 3 3 3 3 4 4 4 4 4 4 4 4 4 4 4 4 4 4 4 4
-2 -1 -1 1 1 0 1 1 0 1 1 1 1 1 1 1 1 1 1 1 1 1 2 2 2 2 3 3 3 3 3 3 3 3 3 3 4 4 4 4 3 3 3 4
-2 -1 -1 0 0 1 0 0 -0 -0 0 0 0 -0 -0 1 1 1 1 1 1 1 1 1 1 2 2 2 2 2 3 3 2 2 3 3 3 3 3 3 3 3 3 3
-3 -2 -1 -1 -0 1 0 -0 -0 -0 -0 -0 -1 -1 -0 -0 0 0 0 0 1 1 1 1 1 1 1 2 2 2 2 2 2 2 2 2 2 2 2 2 2 2 2 2
-3 -2 -2 -1 -1 -1 -1 -0 -0 -1 -1 -1 -1 -1 -1 -1 -1 -0 -0 -0 -0 0 0 0 0 0 0 1 1 1 1 1 1 1 1 1 1 1 1 1 1 1 1 1
-3 -2 -1 -1 -1 -1 -1 -1 -1 -1 -1 -1 -1 -2 -2 -1 -1 -1 -1 -1 -1 -1 -1 -1 -0 -0 0 0 0 0 0 0 0 1 1 1 1 1 0 0 0 0 0 0
-3 -3 -2 -1 -1 -1 -1 -1 -1 -1 -2 -2 -2 -2 -2 -2 -2 -2 -2 -2 -1 -1 -1 -1 -1 -1 -1 -1 -1 -0 -0 -0 -0 -0 -0 -0 -0 -0 -0 -0 -0 -0 -1 -1
-4 -3 -2 -2 -1 -1 -2 -2 -2 -2 -2 -2 -2 -3 -3 -3 -3 -2 -2 -2 -2 -2 -2 -2 -2 -2 -1 -1 -1 -1 -1 -1 -1 -1 -1 -1 -1 -1 -1 -1 -1 -1 -1 -1
-3 -3 -3 -2 -2 -2 -2 -2 -2 -3 -3 -3 -3 -3 -3 -3 -3 -3 -3 -3 -3 -2 -2 -2 -2 -2 -2 -2 -2 -2 -2 -2 -2 -2 -2 -2 -2 -2 -2 -2 -2 -2 -2 -2
-2 -2 -2 -2 -2 -2 -3 -3 -3 -3 -3 -3 -3 -3 -4 -4 -4 -4 -3 -3 -3 -3 -3 -3 -3 -3 -3 -3 -3 -3 -3 -3 -2 -2 -2 -2 -2 -2 -3 -3 -3 -3 -3 -3
-2 -3 -3 -3 -3 -3 -3 -3 -3 -4 -4 -4 -4 -4 -4 -4 -4 -4 -4 -4 -4 -4 -4 -4 -4 -4 -4 -4 -4 -4 -3 -3 -3 -3 -3 -3 -3 -3 -3 -3 -3 -3 -3 -3
-3 -3 -3 -3 -3 -4 -4 -4 -4 -4 -4 -4 -4 -5 -5 -5 -5 -5 -5 -5 -5 -4 -4 -4 -4 -4 -4 -4 -4 -4 -4 -4 -4 -4 -4 -4 -4 -4 -4 -4 -4 -4 -4 -4
-3 -3 -4 -4 -4 -4 -4 -4 -4 -5 -5 -5 -5 -5 -5 -5 -5 -5 -5 -5 -5 -5 -5 -5 -4 -4 -5 -5 -5 -5 -5 -5 -5 -5 -4 -4 -4 -4 -5 -5 -5 -5 -5 -5
-4 -4 -4 -4 -4 -4 -4 -4 -5 -5 -5 -5 -5 -5 -5 -5 -5 -5 -5 -5 -5 -5 -5 -5 -5 -5 -5 -5 -5 -5 -5 -5 -5 -5 -5 -5 -5 -5 -5 -5 -5 -5 -5 -5
-4 -4 -4 -4 -4 -4 -4 -5 -5 -5 -5 -5 -5 -6 -6 -6 -6 -6 -6 -6 -5 -5 -5 -5 -5 -6 -6 -6 -6 -6 -6 -6 -6 -6 -6 -6 -6 -6 -6 -6 -6 -6 -6 -6
-4 -4 -4 -4 -4 -4 -5 -5 -5 -5 -5 -6 -6 -6 -6 -6 -6 -6 -6 -6 -6 -6 -6 -6 -6 -6 -6 -6 -6 -6 -6 -6 -6 -6 -6 -6 -6 -6 -6 -6 -6 -6 -6 -6
-4 -4 -4 -4 -4 -5 -5 -5 -5 -5 -6 -6 -6 -6 -6 -6 -6 -6 -6 -6 -6 -6 -6 -6 -6 -6 -7 -7 -7 -7 -7 -7 -7 -7 -7 -7 -7 -7 -7 -7 -7 -7 -7 -7
-4 -4 -4 -5 -5 -5 -5 -5 -6 -6 -6 -6 -6 -6 -6 -6 -6 -7 -7 -7 -7 -7 -7 -7 -7 -7 -7 -7 -7 -7 -7 -7 -7 -7 -7 -7 -7 -7 -7 -7 -7 -7 -7 -7
-4 -5 -5 -5 -5 -5 -5 -6 -6 -6 -6 -6 -7 -7 -7 -7 -7 -7 -7 -7 -7 -7 -7 -7 -7 -7 -7 -7 -8 -8 -8 -7 -7 -7 -7 -7 -7 -8 -8 -8 -8 -8 -8 -7
-5 -5 -5 -5 -5 -6 -6 -6 -6 -6 -7 -7 -7 -7 -7 -7 -7 -7 -7 -7 -7 -7 -7 -7 -8 -8 -8 -8 -8 -8 -8 -8 -8 -8 -8 -8 -8 -8 -8 -8 -8 -8 -8 -8
-5 -5 -5 -6 -6 -6 -6 -6 -7 -7 -7 -7 -7 -7 -7 -8 -8 -8 -8 -8 -8 -8 -8 -8 -8 -8 -8 -8 -8 -8 -8 -8 -8 -8 -8 -8 -8 -8 -8 -8 -8 -8 -8 -8
-5 -5 -6 -6 -6 -6 -6 -7 -7 -7 -7 -7 -7 -8 -8 -8 -8 -8 -8 -8 -8 -8 -8 -8 -8 -8 -8 -8 -8 -8 -8 -8 -8 -8 -8 -8 -8 -9 -9 -9 -9 -8 -8 -8
-5 -6 -6 -6 -6 -7 -7 -7 -7 -7 -8 -8 -8 -8 -8 -8 -8 -8 -8 -8 -8 -8 -8 -9 -9 -9 -9 -9 -9 -9 -9 -9 -9 -9 -9 -9 -9 -9 -9 -9 -9 -9 -9 -9
-6 -6 -6 -7 -7 -7 -7 -7 -8 -8 -8 -8 -8 -8 -8 -8 -8 -8 -9 -9 -9 -9 -9 -9 -9 -9 -9 -9 -9 -9 -9 -9 -9 -9 -9 -9 -9 -9 -9 -9 -9 -9 -9 -9
Wind_Speed
4 4 1 3 4 2 2 3 4 5 5 6 6 5 5 4 4 4 5 5 4 4 4 4 3 3 3 3 3 5 5 5 4 4 5 5 4 3 3 3 3 3 3 2
3 2 1 3 5 4 4 3 3 4 6 5 5 3 4 3 3 3 3 4 4 4 4 3 2 2 2 3 3 4 5 5 4 5 5 4 4 3 3 3 2 2 2 2
3 4 3 4 5 4 3 3 4 5 6 3 3 4 3 3 2 2 2 3 2 2 2 2 2 2 2 2 3 5 5 5 4 5 4 4 3 4 3 2 2 2 1 1
1 3 2 5 3 2 3 3 2 3 3 2 2 3 3 2 2 3 3 2 1 1 1 2 2 2 3 4 4 5 5 4 4 4 4 3 4 3 2 2 2 1 1 1
1 1 5 5 3 2 2 3 3 2 3 4 3 3 4 4 3 3 2 2 1 0 0 1 2 3 4 4 4 4 4 3 3 4 4 3 3 2 2 2 2 1 1 1
2 2 4 5 5 4 0 3 3 2 2 3 2 2 4 5 5 4 3 2 2 1 2 2 2 3 4 3 3 3 3 3 3 3 3 3 2 2 2 2 1 1 1 1
3 3 5 5 6 2 2 4 3 2 2 2 2 3 4 4 4 4 3 3 2 2 2 2 2 3 4 3 2 1 2 3 3 3 3 3 2 2 2 2 2 1 1 1
2 3 6 4 1 2 4 3 2 2 1 1 2 2 2 3 3 4 4 3 3 3 3 3 2 3 3 2 1 2 3 3 3 2 2 2 3 2 2 2 2 1 1 1
5 5 4 2 2 3 2 2 3 2 2 1 1 1 2 2 2 3 3 3 2 2 3 3 3 2 2 1 2 2 3 3 2 2 2 2 2 2 1 1 1 0 1 1
3 6 5 5 4 3 2 3 3 2 2 2 2 2 2 2 2 2 3 2 2 2 3 3 3 3 2 1 2 2 3 2 2 2 2 2 1 1 1 1 1 1 1 2
5 6 5 5 4 3 3 2 2 3 2 2 2 2 2 2 2 2 2 2 1 1 1 2 2 2 2 2 2 2 2 2 2 1 1 1 1 0 0 1 2 2 2 2
7 6 5 6 4 3 3 3 3 2 2 2 2 2 2 2 2 2 2 2 1 1 1 1 2 2 2 2 2 2 2 1 1 1 1 0 0 1 1 1 2 2 2 2
6 4 4 5 4 3 3 3 2 2 2 2 2 1 1 2 2 2 1 1 1 1 1 1 1 2 2 2 1 2 1 0 0 0 0 0 0 0 1 2 3 2 2 2
4 2 3 3 4 3 2 2 1 2 2 1 1 1 1 1 1 2 2 2 1 1 1 1 1 2 2 1 1 1 1 0 0 0 1 1 0 0 0 1 2 2 3 3
4 4 4 3 2 1 1 0 0 1 1 1 1 1 0 1 1 2 2 2 1 1 1 1 1 2 2 1 1 1 0 0 0 0 0 0 0 0 0 0 1 2 3 3
4 3 3 2 3 2 1 1 1 2 2 1 1 1 1 1 1 2 2 2 1 1 1 1 2 2 2 1 1 0 0 0 0 0 0 0 0 0 0 1 1 2 2 3
3 3 3 4 4 3 3 3 3 2 2 2 1 1 0 0 1 2 2 2 1 1 1 1 2 2 1 0 0 0 0 0 1 1 0 1 1 1 1 1 1 2 2 3
6 6 5 5 5 4 3 2 2 2 2 2 1 1 1 1 1 2 2 2 1 1 2 2 2 1 1 1 0 0 0 0 0 0 1 1 1 1 1 1 2 2 3 3
3 4 3 4 4 4 3 3 2 2 1 1 1 1 1 1 1 1 1 0 0 1 2 2 2 2 1 1 1 0 0 0 1 1 1 1 1 1 1 1 2 2 2 3
2 2 2 2 2 2 2 2 2 1 1 1 1 1 1 1 1 1 0 0 1 1 2 1 1 1 1 1 1 1 0 0 1 1 1 1 1 1 1 2 2 2 2 2
3 2 2 2 2 2 2 3 2 2 1 1 2 2 1 1 1 1 1 0 2 1 1 1 1 0 0 0 1 1 1 1 1 1 1 1 1 2 2 2 2 2 2 2
3 3 3 3 2 2 1 2 2 2 1 1 1 1 1 0 0 0 0 1 1 1 1 0 0 0 0 1 2 1 1 1 1 1 1 1 1 1 2 2 2 2 2 2
3 3 3 3 3 2 1 1 2 2 2 2 2 2 1 1 1 1 1 1 1 1 1 0 0 1 2 2 2 1 1 1 1 1 1 1 1 2 2 2 2 2 2 2
3 3 3 2 2 2 2 2 2 2 2 1 1 1 1 1 0 1 1 1 0 1 1 0 1 2 3 2 1 1 1 1 1 1 1 1 1 1 2 2 2 2 2 3
3 3 3 3 3 3 3 2 2 1 1 1 1 0 1 1 1 1 0 0 0 1 1 1 2 3 2 1 1 1 1 0 0 1 1 1 1 2 2 2 2 3 3 3
3 3 3 3 3 2 2 2 2 2 2 1 1 1 1 1 1 1 1 0 0 1 1 1 1 2 1 1 1 1 1 2 2 2 1 2 2 2 2 3 3 3 4 4
3 2 2 1 2 2 2 3 3 2 2 2 1 1 1 1 1 1 1 1 1 1 1 1 1 1 0 0 1 1 1 1 1 1 2 2 2 2 3 3 4 4 5 5
Wind_Direction
258 263 267 303 299 300 245 209 209 244 258 287 308 314 323 344 3 14 18 20 29 29 24 28 40 55 81 89 95 108 109 110 115 115 112 108 108 117 129 140 144 151 158 160
294 279 287 324 316 282 254 240 225 254 279 292 311 331 342 339 354 8 1 2 12 24 21 16 40 69 87 91 94 108 112 110 107 106 104 103 105 107 104 104 117 133 148 154
293 316 345 303 282 251 225 221 211 240 260 296 335 336 322 323 349 336 331 347 2 7 10 8 30 87 102 106 102 104 105 104 102 104 101 98 101 97 96 86 80 87 106 132
315 22 247 249 287 259 236 255 240 247 283 305 306 309 315 327 336 332 337 339 348 349 4 19 50 85 98 102 103 104 102 102 106 108 106 103 98 93 84 83 85 82 61 69
139 252 279 291 304 309 253 284 309 275 296 315 328 341 336 344 338 318 317 321 306 330 40 49 69 94 100 96 98 101 104 106 109 114 116 110 104 98 96 96 81 71 60 71
146 182 246 265 293 304 238 287 320 331 309 313 340 324 303 334 342 343 358 7 8 39 68 70 60 96 101 98 97 106 115 111 107 111 118 120 114 101 93 102 102 79 44 21
204 227 265 275 299 333 168 258 305 310 314 313 281 257 285 328 345 357 4 6 18 55 65 51 60 93 101 99 104 114 107 103 99 102 113 117 105 98 102 100 88 71 42 353
182 211 256 296 29 176 232 268 290 285 281 293 293 312 328 342 353 1 7 9 26 53 45 35 57 100 104 101 90 90 96 96 92 91 96 103 104 94 97 115 109 83 60 346
202 223 254 265 225 256 255 265 277 269 270 252 279 302 323 337 353 357 1 3 26 58 47 34 43 88 110 85 85 99 104 99 89 81 74 90 115 122 113 114 131 168 213 273
252 267 275 283 282 292 282 276 285 278 266 251 255 267 297 325 350 358 0 9 24 54 46 27 33 56 65 52 72 98 107 106 100 95 78 64 75 103 127 165 203 237 248 256
257 275 293 283 278 274 286 301 302 300 279 245 231 250 269 296 317 336 348 353 20 51 34 15 27 38 34 39 76 94 95 92 96 97 101 74 53 57 193 233 235 243 237 232
243 249 244 268 277 272 275 276 270 271 280 275 244 248 269 291 310 322 329 341 11 26 32 12 20 20 17 32 77 104 98 90 90 113 116 120 53 10 9 332 322 313 283 275
240 254 245 264 273 266 257 266 271 266 262 271 271 246 257 279 303 317 325 339 348 343 351 2 12 13 3 15 68 97 116 119 127 141 169 190 166 182 334 357 17 2 331 316
248 236 258 259 264 267 256 267 291 310 302 279 274 302 297 300 315 318 317 315 319 332 355 16 20 349 334 0 74 84 82 60 35 244 227 220 234 245 247 303 334 333 337 342
252 235 241 257 256 258 252 265 316 305 314 329 347 329 294 290 302 310 315 316 343 5 356 10 353 323 332 12 75 94 84 309 308 295 283 249 253 261 248 286 297 308 323 333
262 254 244 238 238 246 238 230 239 262 278 290 306 311 312 298 303 314 320 321 317 306 303 318 314 314 335 17 63 64 332 8 14 331 326 313 285 249 251 266 282 289 298 308
217 232 235 246 247 250 239 230 228 233 240 247 251 254 327 340 331 331 332 329 303 285 304 308 304 318 336 24 101 141 327 317 1 347 310 278 265 253 259 263 273 285 290 295
219 221 220 219 218 222 226 223 218 218 231 235 227 210 235 250 269 292 305 321 351 5 345 321 311 343 25 30 45 92 99 335 316 291 289 286 277 262 267 272 276 284 297 302
218 208 209 210 201 194 202 213 217 219 224 213 206 226 243 253 263 273 287 326 22 335 319 318 356 42 27 9 39 97 84 27 354 333 317 304 324 306 284 278 282 288 296 305
196 186 184 192 183 177 188 192 189 206 224 200 192 203 236 257 257 265 272 267 262 264 283 314 46 46 15 359 39 90 68 13 337 333 345 341 319 311 300 288 285 291 296 297
196 190 184 180 186 192 186 180 178 198 216 195 188 206 222 243 231 180 137 296 311 307 316 28 61 26 327 10 46 74 56 26 8 350 344 343 336 327 318 311 307 305 305 307
203 197 197 189 180 198 202 179 177 182 182 185 186 181 171 189 163 72 276 234 275 325 48 73 321 304 5 58 76 67 49 34 13 0 351 333 318 313 312 313 310 311 315 314
203 197 196 196 193 193 174 173 179 175 183 196 200 199 197 200 181 171 270 277 270 326 49 210 281 36 53 69 76 64 39 20 2 349 332 317 308 305 305 311 313 311 309 308
193 193 196 184 155 152 184 211 193 185 190 201 210 205 180 167 232 259 238 283 10 43 46 3 35 60 68 76 70 56 29 8 351 334 323 321 318 315 314 314 314 312 306 304
184 181 176 169 180 200 205 188 172 184 178 191 239 238 190 178 189 209 176 229 334 61 43 10 32 50 60 65 60 46 13 352 343 345 335 330 322 318 316 315 313 311 307 303
180 187 194 200 204 201 186 174 181 197 191 197 227 234 207 176 163 155 150 149 244 56 51 21 24 44 57 56 44 21 357 347 355 355 338 323 316 315 314 314 313 309 307 302
172 175 174 190 206 194 183 181 189 199 197 191 200 214 193 168 152 150 148 136 98 69 59 47 44 46 48 38 15 348 340 334 328 322 319 315 311 308 308 308 306 303 301 299
Height
1488 1486 1486 1485 1483 1481 1481 1482 1483 1481 1478 1475 1473 1472 1470 1467 1465 1464 1462 1461 1460 1460 1460 1460 1461 1462 1464 1465 1467 1469 1471 1474 1476 1478 1480 1482 1485 1487 1489 1491 1492 1493 1494 1495
1488 1484 1483 1483 1482 1481 1480 1480 1480 1479 1478 1475 1473 1471 1470 1468 1466 1464 1463 1462 1461 1460 1459 1460 1461 1462 1463 1464 1465 1468 1470 1472 1474 1476 1478 1480 1483 1485 1486 1488 1489 1490 1491 1491
1491 1486 1483 1486 1483 1481 1480 1479 1478 1478 1477 1474 1473 1471 1470 1468 1466 1465 1464 1462 1461 1461 1460 1460 1461 1461 1462 1463 1465 1467 1469 1471 1473 1475 1476 1479 1481 1483 1484 1485 1486 1487 1488 1488
1495 1492 1496 1487 1481 1479 1478 1477 1477 1475 1474 1473 1472 1471 1469 1468 1466 1465 1464 1463 1462 1461 1461 1461 1461 1462 1462 1463 1465 1467 1468 1469 1471 1473 1475 1477 1479 1480 1482 1483 1483 1484 1484 1485
1499 1500 1493 1484 1481 1480 1479 1478 1476 1475 1474 1473 1472 1470 1469 1468 1467 1465 1463 1462 1461 1461 1461 1461 1461 1461 1462 1463 1464 1466 1467 1468 1470 1472 1473 1475 1477 1478 1479 1480 1481 1481 1481 1481
1500 1499 1494 1485 1480 1478 1480 1480 1477 1475 1474 1473 1471 1472 1470 1468 1466 1464 1462 1461 1461 1461 1460 1460 1461 1461 1461 1462 1463 1465 1466 1467 1469 1471 1472 1473 1474 1475 1476 1477 1478 1478 1478 1478
1500 1500 1491 1484 1479 1478 1483 1481 1476 1474 1473 1472 1472 1471 1469 1467 1465 1463 1462 1461 1460 1460 1459 1460 1460 1461 1461 1462 1463 1464 1466 1467 1468 1469 1470 1471 1472 1473 1474 1475 1475 1475 1475 1475
1499 1498 1492 1480 1479 1481 1480 1476 1475 1473 1472 1471 1470 1469 1467 1465 1464 1462 1461 1460 1459 1459 1458 1459 1459 1460 1460 1461 1462 1464 1465 1466 1466 1468 1469 1469 1470 1471 1471 1472 1472 1472 1472 1472
1493 1489 1482 1479 1478 1477 1476 1475 1473 1471 1470 1469 1468 1467 1466 1464 1463 1461 1460 1459 1458 1458 1457 1458 1459 1459 1459 1460 1461 1462 1463 1464 1464 1466 1466 1467 1467 1468 1468 1469 1469 1469 1469 1468
1487 1482 1479 1478 1476 1476 1475 1473 1471 1470 1469 1468 1466 1465 1464 1463 1461 1460 1459 1458 1457 1457 1457 1457 1458 1458 1458 1459 1460 1460 1461 1462 1462 1463 1463 1464 1464 1465 1465 1465 1465 1465 1465 1465
1483 1479 1477 1475 1474 1473 1472 1471 1469 1468 1467 1465 1464 1463 1462 1461 1460 1459 1458 1457 1457 1456 1456 1456 1456 1457 1457 1458 1458 1458 1459 1459 1460 1461 1461 1461 1462 1462 1462 1462 1462 1462 1462 1462
1479 1476 1476 1473 1472 1471 1470 1468 1467 1465 1464 1463 1462 1461 1460 1459 1458 1457 1457 1456 1456 1455 1455 1455 1455 1455 1456 1456 1456 1456 1457 1457 1457 1458 1458 1458 1459 1459 1459 1460 1459 1459 1459 1459
1473 1472 1472 1471 1470 1469 1467 1466 1464 1463 1462 1461 1460 1459 1458 1457 1456 1456 1455 1455 1454 1453 1453 1453 1453 1454 1454 1454 1454 1454 1454 1454 1454 1455 1455 1455 1456 1456 1456 1456 1456 1456 1456 1455
1470 1470 1468 1468 1467 1466 1465 1463 1462 1461 1460 1459 1458 1457 1456 1455 1454 1454 1453 1453 1452 1452 1452 1452 1452 1452 1452 1452 1452 1452 1452 1452 1452 1452 1453 1453 1453 1453 1453 1453 1453 1452 1453 1452
1466 1466 1466 1465 1464 1463 1462 1461 1460 1459 1458 1457 1456 1455 1454 1453 1452 1451 1451 1451 1450 1450 1450 1450 1450 1450 1450 1450 1449 1449 1449 1449 1450 1450 1450 1451 1451 1451 1451 1451 1450 1449 1449 1449
1462 1462 1462 1462 1461 1460 1460 1459 1458 1457 1456 1455 1454 1453 1452 1451 1450 1449 1449 1449 1448 1448 1448 1448 1448 1448 1447 1447 1447 1447 1447 1447 1447 1448 1448 1448 1448 1448 1448 1448 1448 1447 1446 1446
1459 1458 1458 1458 1458 1457 1457 1456 1456 1455 1454 1453 1452 1451 1450 1450 1449 1448 1447 1447 1447 1446 1446 1446 1445 1446 1446 1445 1445 1445 1445 1445 1445 1446 1446 1446 1446 1446 1446 1446 1445 1444 1444 1444
1455 1455 1456 1455 1455 1454 1454 1454 1453 1453 1452 1451 1450 1450 1449 1448 1447 1446 1446 1446 1445 1445 1445 1444 1444 1444 1444 1444 1443 1443 1443 1443 1443 1443 1443 1443 1443 1443 1443 1443 1442 1442 1441 1441
1451 1452 1452 1452 1452 1452 1452 1451 1451 1450 1450 1449 1449 1448 1447 1446 1445 1445 1444 1444 1443 1443 1443 1443 1443 1442 1442 1442 1442 1442 1442 1441 1441 1441 1441 1441 1441 1441 1440 1440 1439 1439 1439 1438
1449 1449 1449 1449 1449 1449 1449 1449 1449 1448 1448 1447 1447 1446 1445 1445 1444 1444 1443 1443 1443 1442 1442 1442 1441 1441 1441 1441 1441 1441 1440 1440 1440 1440 1439 1439 1439 1438 1438 1438 1437 1436 1436 1435
1446 1447 1447 1447 1447 1447 1447 1447 1446 1446 1446 1445 1445 1444 1444 1443 1443 1443 1442 1442 1442 1441 1441 1441 1440 1440 1440 1440 1440 1440 1439 1439 1439 1438 1438 1437 1437 1436 1436 1435 1435 1434 1433 1433
1444 1444 1445 1445 1445 1445 1445 1445 1445 1444 1444 1444 1443 1443 1442 1442 1442 1441 1441 1441 1441 1440 1440 1440 1440 1439 1439 1439 1439 1439 1438 1438 1438 1437 1437 1436 1436 1435 1434 1434 1433 1432 1431 1431
1442 1442 1443 1443 1443 1443 1443 1443 1442 1442 1442 1442 1442 1441 1441 1441 1440 1440 1440 1441 1440 1439 1439 1439 1439 1439 1439 1438 1438 1438 1438 1437 1437 1436 1436 1435 1434 1434 1433 1432 1431 1430 1430 1429
1440 1440 1440 1440 1440 1440 1440 1440 1440 1441 1441 1440 1440 1440 1440 1440 1439 1439 1439 1439 1439 1439 1438 1438 1438 1438 1438 1437 1437 1437 1437 1436 1436 1435 1434 1434 1433 1432 1431 1430 1429 1429 1428 1427
1437 1438 1438 1438 1438 1438 1438 1438 1438 1439 1439 1439 1439 1439 1439 1439 1439 1438 1438 1438 1438 1438 1438 1438 1437 1437 1437 1436 1436 1436 1435 1435 1434 1434 1433 1432 1431 1430 1430 1429 1428 1427 1426 1425
1434 1435 1435 1435 1436 1436 1436 1436 1436 1437 1437 1437 1437 1437 1437 1437 1437 1437 1437 1437 1437 1437 1437 1437 1436 1436 1436 1435 1435 1435 1434 1434 1433 1432 1432 1431 1430 1429 1428 1427 1426 1425 1424 1423
1432 1432 1432 1432 1433 1433 1434 1434 1434 1435 1435 1435 1435 1435 1435 1435 1435 1435 1436 1436 1436 1436 1436 1436 1435 1435 1435 1435 1434 1433 1433 1432 1431 1431 1430 1429 1428 1427 1426 1425 1424 1423 1422 1421